User: anonymous   Login
Location: Unspecified
(0.0000°N, 0.0000°E)
Time: 00:56:05
(UTC+02:00)
Language:

ARIANE 44L R/B - Orbit

View from above orbital plane
View from above orbital plane
View from above satellite
View from above satellite

Ground track
Ground track

The orbit data is extracted from the following two-line orbital elements,

1 26901U 01039B   15109.54116023  .00010938  00000-0  26771-2 0  9995
2 26901 007.0246 175.4910 6961587 267.7414 338.8826 02.69131981121843
Epoch (UTC): 19 April 2015 12:59:16
Eccentricity: 0.6961587
inclination: 7.0246°
perigee height: 255 km
apogee height: 30652 km
right ascension of ascending node: 175.4910°
argument of perigee: 267.7414°
revolutions per day: 2.69131981
mean anomaly at epoch: 338.8826°
orbit number at epoch: 12184

The dashed part of the orbit path shows where the satellite is in the earth's shadow,  

DLR